FW3222 Weather Reports


Display with metric or nautical units.
time (UTC)temp
F
wind
direction
speed
MPH
gust
MPH
rain 1hr
in
rain 24hr
in
rain mn
in
humidity
%
barometer
mb
20260904212035 85 286 1.0 7.0 0.00 0.06 0.01 53 1012.4
20260904211731 85 312 1.0 4.0 0.00 0.06 0.01 52 1012.4
20260904211426 85 259 1.0 4.0 0.00 0.06 0.01 53 1012.4
20260904211117 85 0 0.0 4.0 0.00 0.06 0.01 51 1012.3
20260904205938 85 212 0.0 2.0 0.00 0.06 0.01 51 1012.3
20260904205634 85 215 0.0 2.0 0.00 0.06 0.01 51 1012.3
20260904205329 85 288 0.0 2.0 0.00 0.06 0.01 50 1012.3
20260904205016 86 302 0.0 2.0 0.00 0.06 0.01 51 1012.2
20260904204711 86 80 1.0 7.0 0.00 0.06 0.01 50 1012.1
20260904204408 86 178 1.0 7.0 0.00 0.06 0.01 48 1012.2
20260904203649 87 350 2.0 7.0 0.00 0.06 0.01 47 1012.2
20260904203344 87 334 2.0 6.0 0.00 0.06 0.01 50 1012.1
20260904203046 87 270 1.0 7.0 0.00 0.06 0.01 48 1012.1
20260904202741 87 274 1.0 7.0 0.00 0.06 0.01 50 1012.1
20260904202428 87 63 1.0 7.0 0.00 0.06 0.01 49 1012.1
20260904202121 87 66 2.0 7.0 0.00 0.06 0.01 50 1012.2
20260904201810 87 118 2.0 7.0 0.00 0.06 0.01 51 1012.3
20260904201457 87 295 2.0 7.0 0.00 0.06 0.01 50 1012.4
20260904201150 86 270 2.0 4.0 0.00 0.06 0.01 49 1012.5
20260904200427 87 24 1.0 4.0 0.00 0.06 0.01 49 1012.4
20260904200121 87 309 0.0 4.0 0.00 0.06 0.01 50 1012.4
20260904195820 87 316 1.0 4.0 0.00 0.06 0.01 48 1012.4
20260904195054 87 19 1.0 4.0 0.00 0.06 0.01 47 1012.4
20260904194741 87 80 1.0 4.0 0.00 0.06 0.01 49 1012.4
20260904194445 87 172 0.0 3.0 0.00 0.06 0.01 51 1012.4
20260904193729 86 92 1.0 3.0 0.00 0.06 0.01 47 1012.6
20260904193417 86 315 1.0 3.0 0.00 0.06 0.01 48 1012.7
20260904192700 86 25 0.0 9.0 0.00 0.06 0.01 51 1012.6
20260904191930 86 13 1.0 9.0 0.00 0.06 0.01 49 1012.7
20260904191623 86 5 2.0 9.0 0.00 0.06 0.01 48 1012.8
20260904191324 86 317 1.0 9.0 0.00 0.06 0.01 49 1012.8
20260904191020 87 12 1.0 9.0 0.00 0.06 0.01 48 1012.8
20260904190720 87 315 1.0 9.0 0.00 0.06 0.01 49 1012.8
20260904190415 87 342 2.0 9.0 0.00 0.06 0.01 48 1012.8
20260904190109 87 297 2.0 9.0 0.00 0.06 0.01 48 1013.0
20260904185801 87 298 2.0 9.0 0.00 0.06 0.01 46 1012.8
20260904185457 87 74 2.0 8.0 0.00 0.06 0.01 48 1013.1
20260904185146 87 275 2.0 6.0 0.00 0.06 0.01 48 1013.1
20260904184423 86 309 1.0 6.0 0.00 0.06 0.01 52 1013.4
20260904183642 86 342 1.0 4.0 0.00 0.06 0.01 51 1013.5
20260904183345 86 294 1.0 9.0 0.00 0.06 0.01 50 1013.6
20260904182207 86 288 3.0 9.0 0.00 0.06 0.01 48 1013.9
20260904181857 86 263 3.0 9.0 0.00 0.06 0.01 50 1014.0
20260904181544 87 276 2.0 9.0 0.00 0.06 0.01 48 1014.0
20260904181237 87 202 2.0 9.0 0.00 0.06 0.01 47 1014.0
20260904180934 87 313 2.0 10.0 0.00 0.06 0.01 47 1014.1
20260904180209 88 344 2.0 10.0 0.00 0.06 0.01 48 1014.1
20260904175901 88 304 3.0 10.0 0.00 0.06 0.01 47 1014.0
20260904175142 87 274 1.0 10.0 0.00 0.06 0.01 47 1014.2
20260904174843 87 273 0.0 6.0 0.00 0.06 0.01 50 1014.2
20260904174547 87 70 0.0 6.0 0.00 0.06 0.01 51 1014.3
20260904174247 87 203 1.0 6.0 0.00 0.06 0.01 48 1014.2
20260904173936 87 192 2.0 6.0 0.00 0.06 0.01 47 1014.2
20260904173626 87 279 2.0 6.0 0.00 0.06 0.01 48 1014.2
20260904173321 87 291 2.0 6.0 0.00 0.06 0.01 48 1014.2
20260904173021 87 281 1.0 7.0 0.00 0.06 0.01 51 1014.3
20260904172712 87 182 1.0 7.0 0.00 0.06 0.01 52 1014.2
20260904172359 87 302 1.0 7.0 0.00 0.06 0.01 52 1014.2
20260904172052 86 256 1.0 8.0 0.00 0.06 0.01 52 1014.2
20260904171754 86 152 1.0 8.0 0.00 0.06 0.01 51 1014.2
20260904171443 86 104 1.0 8.0 0.00 0.06 0.01 52 1014.3
20260904171129 86 322 1.0 8.0 0.00 0.06 0.01 53 1014.2
20260904170817 86 267 2.0 8.0 0.00 0.06 0.01 50 1014.3
20260904170515 86 311 2.0 8.0 0.00 0.06 0.01 52 1014.3
20260904170200 86 292 1.0 7.0 0.00 0.06 0.01 54 1014.3
20260904165430 86 315 2.0 5.0 0.00 0.06 0.01 52 1014.3
20260904165118 85 325 2.0 7.0 0.00 0.06 0.01 53 1014.3
20260904164815 85 337 2.0 7.0 0.00 0.06 0.01 52 1014.4
20260904164514 85 5 2.0 7.0 0.00 0.06 0.01 54 1014.5
20260904164206 85 336 1.0 7.0 0.00 0.06 0.01 54 1014.4
20260904163906 85 202 1.0 7.0 0.00 0.06 0.01 55 1014.5
20260904163148 85 317 1.0 9.0 0.00 0.06 0.01 55 1014.5
20260904162837 84 334 2.0 9.0 0.00 0.06 0.01 57 1014.5
20260904162536 84 291 2.0 9.0 0.00 0.06 0.01 55 1014.6
20260904162237 84 284 3.0 9.0 0.00 0.06 0.01 57 1014.5
20260904161937 83 309 3.0 12.0 0.00 0.06 0.01 56 1014.6
20260904161623 83 286 3.0 12.0 0.00 0.06 0.01 56 1014.7
20260904161318 83 317 3.0 12.0 0.00 0.06 0.01 57 1014.8
20260904161019 83 266 4.0 12.0 0.00 0.06 0.01 57 1014.8
20260904160709 82 327 3.0 12.0 0.00 0.06 0.01 58 1014.8
20260904160401 82 257 3.0 12.0 0.00 0.06 0.01 56 1014.8
20260904160052 82 337 2.0 8.0 0.00 0.06 0.01 57 1014.8
20260904155752 82 166 2.0 7.0 0.00 0.06 0.01 57 1014.7
20260904155442 82 311 2.0 7.0 0.00 0.06 0.01 58 1014.8
20260904155141 81 332 2.0 7.0 0.00 0.06 0.01 58 1014.8
20260904154828 81 282 2.0 7.0 0.00 0.06 0.01 59 1014.8
20260904154525 81 259 1.0 6.0 0.00 0.06 0.01 60 1014.7
20260904154228 81 5 1.0 6.0 0.00 0.06 0.01 60 1014.8
20260904153932 80 246 2.0 6.0 0.00 0.06 0.01 59 1014.8
20260904153626 80 318 1.0 5.0 0.00 0.06 0.01 61 1014.8
20260904153326 80 248 1.0 5.0 0.00 0.06 0.01 61 1014.8
20260904153017 79 251 1.0 4.0 0.00 0.06 0.01 62 1014.8
20260904152707 79 276 1.0 0.0 0.00 0.06 0.01 60 1014.8
20260904152404 79 5 2.0 8.0 0.00 0.06 0.01 62 1014.7
20260904152052 79 13 2.0 8.0 0.00 0.06 0.01 63 1014.8
20260904151331 78 298 2.0 8.0 0.00 0.06 0.01 64 1014.8
20260904151017 78 188 2.0 8.0 0.00 0.06 0.01 64 1014.7
20260904150244 77 258 3.0 8.0 0.00 0.06 0.01 64 1014.7
20260904145948 77 338 2.0 8.0 0.00 0.06 0.01 65 1014.8
20260904145642 77 234 2.0 8.0 0.00 0.06 0.01 66 1014.7
20260904145337 77 209 1.0 8.0 0.00 0.06 0.01 67 1014.9
20260904145037 76 290 2.0 8.0 0.00 0.06 0.01 67 1014.8
20260904144733 76 147 2.0 8.0 0.00 0.06 0.01 68 1014.9
20260904144421 76 309 2.0 6.0 0.00 0.06 0.01 68 1014.7
20260904144120 76 282 2.0 6.0 0.00 0.06 0.01 68 1014.9
20260904143355 75 281 1.0 6.0 0.00 0.07 0.01 69 1015.2
20260904143045 75 256 1.0 6.0 0.00 0.08 0.01 69 1015.2
20260904142733 75 292 2.0 6.0 0.00 0.08 0.01 69 1015.1
20260904142422 75 163 2.0 6.0 0.00 0.09 0.01 69 1015.0
20260904142120 75 42 2.0 8.0 0.00 0.10 0.01 69 1014.9
20260904141824 75 184 2.0 8.0 0.00 0.10 0.01 70 1015.0
20260904141522 75 287 1.0 8.0 0.00 0.11 0.01 70 1014.8
20260904141215 75 24 1.0 8.0 0.00 0.11 0.01 70 1014.9
20260904140902 74 330 2.0 8.0 0.00 0.12 0.01 70 1014.8
20260904140550 74 240 2.0 8.0 0.00 0.12 0.01 70 1014.9
20260904140244 74 266 2.0 8.0 0.00 0.12 0.01 70 1014.9
20260904135933 74 307 2.0 6.0 0.00 0.12 0.01 71 1014.9
20260904135626 74 327 1.0 6.0 0.00 0.12 0.01 71 1014.9
20260904135313 74 271 2.0 6.0 0.00 0.12 0.01 71 1014.8
20260904135003 74 18 1.0 8.0 0.00 0.12 0.01 71 1014.8
20260904134655 73 340 1.0 8.0 0.00 0.12 0.01 71 1014.8
20260904134345 73 57 2.0 8.0 0.00 0.12 0.01 72 1014.9
20260904133604 73 36 2.0 8.0 0.00 0.12 0.01 72 1015.1
20260904132839 72 325 1.0 6.0 0.00 0.12 0.01 73 1015.0
20260904132532 72 292 2.0 6.0 0.00 0.12 0.01 73 1015.0
20260904132228 72 13 2.0 6.0 0.00 0.12 0.01 73 1014.9
20260904131928 72 342 2.0 6.0 0.00 0.12 0.01 74 1015.0
20260904131624 72 276 2.0 6.0 0.00 0.12 0.01 74 1014.8
20260904131324 72 306 2.0 5.0 0.00 0.12 0.01 74 1014.9
20260904131022 71 5 2.0 5.0 0.00 0.12 0.01 74 1014.9
20260904130718 71 280 2.0 5.0 0.00 0.12 0.01 74 1014.9
20260904130405 71 286 1.0 5.0 0.00 0.12 0.01 74 1014.9
20260904130055 71 336 1.0 8.0 0.00 0.12 0.01 75 1015.0
20260904125338 71 320 2.0 8.0 0.00 0.12 0.01 76 1015.0
20260904125037 71 296 2.0 8.0 0.00 0.12 0.01 76 1015.2
20260904124728 70 278 2.0 8.0 0.00 0.12 0.01 76 1015.1
20260904124427 70 317 2.0 8.0 0.00 0.12 0.01 76 1015.1
20260904124129 70 275 1.0 7.0 0.00 0.12 0.01 77 1015.2
20260904123821 70 355 1.0 5.0 0.00 0.12 0.01 77 1015.2
20260904122649 70 271 1.0 5.0 0.00 0.12 0.01 77 1015.5
20260904122339 70 284 0.0 5.0 0.00 0.12 0.01 77 1015.3
20260904122031 70 284 0.0 2.0 0.00 0.12 0.01 77 1015.2
20260904121253 69 294 0.0 3.0 0.00 0.12 0.01 77 1015.0
20260904120531 69 192 0.0 1.0 0.00 0.12 0.01 77 1015.3
20260904120223 69 243 0.0 0.0 0.00 0.12 0.01 77 1015.3
20260904115909 69 243 0.0 0.0 0.00 0.12 0.01 77 1015.3
20260904115556 69 243 0.0 5.0 0.00 0.12 0.01 77 1015.3
20260904115248 69 172 0.0 4.0 0.00 0.12 0.01 77 1015.2
20260904114524 68 236 0.0 2.0 0.00 0.12 0.01 77 1015.4
20260904114223 68 185 0.0 2.0 0.00 0.12 0.01 77 1015.4
20260904113924 68 205 0.0 2.0 0.00 0.12 0.01 77 1015.4
20260904113611 68 188 0.0 2.0 0.00 0.12 0.01 77 1015.5
20260904113301 68 188 0.0 2.0 0.00 0.12 0.01 77 1015.5
20260904112953 67 306 0.0 2.0 0.00 0.12 0.01 77 1015.5
20260904112641 67 182 0.0 2.0 0.00 0.12 0.01 76 1015.3
20260904112327 67 205 0.0 0.0 0.00 0.12 0.01 76 1015.3
20260904112015 67 205 0.0 0.0 0.00 0.12 0.01 76 1015.2
20260904111709 67 205 0.0 0.0 0.00 0.12 0.01 76 1015.1
20260904111411 67 205 0.0 0.0 0.00 0.12 0.01 76 1015.2
20260904111115 67 205 0.0 0.0 0.00 0.12 0.01 76 1015.0
20260904110333 67 149 0.0 0.0 0.00 0.12 0.01 75 1015.1
20260904110036 67 149 0.0 0.0 0.00 0.12 0.01 75 1014.9
20260904105730 67 71 0.0 0.0 0.00 0.13 0.01 75 1014.8
20260904105420 67 71 0.0 0.0 0.00 0.13 0.01 75 1014.8
20260904104659 67 132 0.0 0.0 0.00 0.15 0.01 75 1014.6
20260904104357 68 149 0.0 0.0 0.00 0.16 0.01 75 1014.5
20260904104050 68 149 0.0 0.0 0.00 0.16 0.01 75 1014.4
20260904103741 68 148 0.0 0.0 0.00 0.16 0.01 75 1014.5
20260904103437 67 94 0.0 0.0 0.00 0.17 0.01 75 1014.5
20260904103138 68 81 0.0 0.0 0.00 0.17 0.01 75 1014.6
20260904102841 68 177 0.0 0.0 0.00 0.17 0.01 75 1014.4
20260904102529 68 177 0.0 0.0 0.00 0.17 0.01 75 1014.4
20260904102229 68 177 0.0 0.0 0.00 0.17 0.01 75 1014.4
20260904101930 68 177 0.0 0.0 0.00 0.17 0.01 75 1014.3
20260904101623 68 177 0.0 0.0 0.00 0.17 0.01 75 1014.3
20260904101312 68 177 0.0 0.0 0.00 0.17 0.01 75 1014.3
20260904101013 68 177 0.0 0.0 0.00 0.17 0.01 75 1014.3
20260904100710 68 177 0.0 0.0 0.00 0.18 0.01 75 1014.2
20260904100409 68 177 0.0 0.0 0.00 0.18 0.01 75 1014.3
20260904100101 68 177 0.0 0.0 0.00 0.18 0.01 75 1014.3
20260904095754 68 177 0.0 0.0 0.00 0.18 0.01 75 1014.2
20260904095038 68 177 0.0 0.0 0.00 0.18 0.01 75 1014.4
20260904094731 68 177 0.0 0.0 0.00 0.19 0.01 75 1014.3
20260904094433 68 177 0.0 0.0 0.00 0.20 0.01 75 1014.3
20260904094124 68 177 0.0 1.0 0.00 0.20 0.01 75 1014.3
20260904093816 68 205 0.0 0.0 0.00 0.20 0.01 75 1014.2
20260904093517 68 205 0.0 0.0 0.00 0.21 0.01 75 1014.3
20260904093214 68 205 0.0 0.0 0.00 0.22 0.01 75 1014.3
20260904092913 68 205 0.0 0.0 0.00 0.22 0.01 75 1014.3
20260904092609 68 205 0.0 0.0 0.00 0.22 0.01 75 1014.4
20260904092256 68 265 0.0 0.0 0.00 0.22 0.01 75 1014.5
20260904091959 68 265 0.0 0.0 0.00 0.22 0.01 75 1014.4
20260904091651 68 265 0.0 0.0 0.00 0.22 0.01 75 1014.4
20260904091349 68 265 0.0 0.0 0.00 0.22 0.01 75 1014.4
20260904091048 68 265 0.0 0.0 0.00 0.22 0.01 75 1014.4
20260904090736 68 265 0.0 0.0 0.00 0.23 0.01 75 1014.3
20260904090430 68 265 0.0 0.0 0.00 0.24 0.01 75 1014.4
20260904090128 68 265 0.0 0.0 0.00 0.31 0.01 75 1014.2
20260904085821 68 319 0.0 0.0 0.00 0.34 0.01 75 1014.3
20260904085516 68 319 0.0 0.0 0.00 0.34 0.01 75 1014.4
20260904085210 68 319 0.0 0.0 0.00 0.34 0.01 75 1014.3
20260904084911 68 319 0.0 0.0 0.00 0.34 0.01 75 1014.4
20260904083717 68 267 0.0 0.0 0.00 0.34 0.01 74 1014.4
20260904083407 68 267 0.0 0.0 0.00 0.34 0.01 74 1014.4
20260904083104 68 267 0.0 0.0 0.00 0.35 0.01 74 1014.4
20260904082804 68 267 0.0 0.0 0.00 0.35 0.01 74 1014.4
20260904082500 68 267 0.0 0.0 0.00 0.35 0.01 74 1014.4
20260904082201 68 267 0.0 0.0 0.00 0.35 0.01 74 1014.3
20260904081850 68 267 0.0 0.0 0.00 0.35 0.01 74 1014.3
20260904081537 68 267 0.0 0.0 0.00 0.35 0.01 74 1014.2
20260904080819 68 267 0.0 0.0 0.00 0.35 0.01 74 1014.2
20260904080058 68 267 0.0 0.0 0.00 0.35 0.01 73 1014.3
20260904075325 68 267 0.0 0.0 0.00 0.35 0.01 73 1014.1
20260904075012 68 267 0.0 1.0 0.00 0.35 0.01 73 1014.1
20260904074710 68 252 0.0 0.0 0.00 0.36 0.01 73 1014.1
20260904074407 68 104 0.0 0.0 0.00 0.36 0.01 73 1013.9
20260904074108 68 104 0.0 0.0 0.00 0.37 0.01 73 1013.9
20260904073759 68 104 0.0 0.0 0.00 0.37 0.01 73 1014.0
20260904073455 68 104 0.0 0.0 0.00 0.37 0.01 73 1013.9
20260904073153 68 104 0.0 0.0 0.00 0.37 0.01 73 1014.0
20260904072853 68 104 0.0 0.0 0.00 0.37 0.01 73 1014.0
20260904072557 68 106 0.0 0.0 0.00 0.37 0.01 73 1014.0
20260904072259 69 142 0.0 0.0 0.00 0.37 0.01 73 1013.8
20260904071957 69 160 0.0 0.0 0.00 0.37 0.01 73 1013.6
20260904071645 69 188 0.0 0.0 0.00 0.37 0.01 73 1013.8
20260904071339 69 262 0.0 0.0 0.00 0.37 0.01 73 1013.7
20260904071034 69 266 0.0 0.0 0.00 0.37 0.01 73 1013.6
20260904070722 69 261 0.0 2.0 0.00 0.37 0.01 73 1013.7
20260904070409 69 241 0.0 2.0 0.00 0.37 0.01 72 1013.6
20260904070104 69 232 0.0 2.0 0.00 0.37 0.01 73 1013.4
20260904065755 69 261 0.0 2.0 0.00 0.37 0.01 72 1013.5
20260904065445 69 270 0.0 3.0 0.00 0.37 0.01 72 1013.4
20260904065134 69 5 0.0 3.0 0.00 0.37 0.01 72 1013.4
20260904064827 69 242 0.0 6.0 0.00 0.37 0.01 72 1013.3
20260904064530 69 297 0.0 6.0 0.00 0.37 0.01 72 1013.2
20260904064220 69 97 1.0 6.0 0.00 0.37 0.01 72 1013.2
20260904063908 69 276 1.0 8.0 0.00 0.37 0.01 72 1013.1
20260904063611 69 311 1.0 8.0 0.00 0.37 0.01 72 1013.1
20260904062842 69 262 2.0 8.0 0.00 0.37 0.01 72 1012.9
20260904062117 69 309 1.0 7.0 0.00 0.37 0.01 72 1012.7
20260904061820 69 218 1.0 7.0 0.00 0.37 0.01 72 1012.7
20260904061525 69 287 1.0 9.0 0.00 0.37 0.01 72 1012.6
20260904060805 69 211 2.0 9.0 0.00 0.37 0.01 72 1012.6
20260904060452 69 314 2.0 9.0 0.00 0.37 0.01 72 1012.5
20260904060150 69 312 2.0 9.0 0.00 0.37 0.01 72 1012.6
20260904055847 69 273 1.0 9.0 0.00 0.37 0.01 72 1012.7
20260904055540 69 162 1.0 5.0 0.00 0.37 0.01 72 1012.7
20260904054818 69 325 1.0 4.0 0.00 0.37 0.01 71 1012.7
20260904054513 69 269 1.0 5.0 0.00 0.37 0.01 72 1012.8
20260904054206 69 307 1.0 5.0 0.00 0.37 0.01 72 1012.7
20260904053908 70 315 1.0 5.0 0.00 0.37 0.01 72 1012.8
20260904053600 70 282 1.0 5.0 0.00 0.37 0.01 71 1012.8
20260904053255 70 289 1.0 5.0 0.00 0.37 0.01 71 1012.9
20260904052944 70 296 1.0 5.0 0.00 0.37 0.01 71 1012.9
20260904052632 70 279 1.0 4.0 0.00 0.37 0.01 71 1013.0
20260904052320 70 299 1.0 4.0 0.00 0.37 0.01 71 1013.0
20260904051148 70 313 0.0 3.0 0.00 0.37 0.01 71 1013.0
20260904050848 70 276 0.0 3.0 0.00 0.37 0.01 71 1013.1
20260904050539 70 288 0.0 3.0 0.00 0.37 0.01 71 1013.1
20260904050230 70 314 0.0 3.0 0.00 0.37 0.01 71 1013.3
20260904045928 70 317 0.0 3.0 0.00 0.37 0.01 71 1013.2
20260904045202 70 346 0.0 3.0 0.00 0.37 0.01 71 1013.2
20260904044859 70 249 0.0 1.0 0.00 0.37 0.01 71 1013.1
20260904044547 70 301 0.0 5.0 0.00 0.37 0.01 71 1013.1
20260904044236 70 234 0.0 5.0 0.00 0.37 0.01 71 1013.2
20260904043925 70 292 1.0 5.0 0.00 0.37 0.01 71 1013.3
20260904043200 71 188 1.0 5.0 0.00 0.37 0.01 71 1013.2
20260904042852 71 206 0.0 5.0 0.00 0.37 0.01 71 1013.3
20260904042137 71 194 0.0 4.0 0.00 0.37 0.01 71 1013.4
20260904041408 71 276 0.0 4.0 0.00 0.37 0.01 70 1013.8
20260904040630 71 341 0.0 4.0 0.00 0.36 0.01 70 1013.8
20260904040320 71 194 0.0 4.0 0.00 0.36 0.00 70 1013.8
20260904040021 71 266 1.0 4.0 0.00 0.36 0.00 70 1013.9
20260904035718 71 273 0.0 4.0 0.00 0.36 0.37 70 1013.9
20260904034942 72 228 1.0 4.0 0.00 0.36 0.37 70 1014.1
20260904034637 72 239 1.0 4.0 0.00 0.36 0.37 70 1014.2
20260904033924 72 176 1.0 6.0 0.04 0.36 0.37 70 1014.5
20260904033614 72 318 1.0 6.0 0.04 0.36 0.37 70 1014.6
20260904033315 72 192 1.0 10.0 0.04 0.36 0.37 70 1014.6
20260904033012 73 209 1.0 10.0 0.04 0.36 0.37 70 1014.7
20260904032715 73 189 1.0 10.0 0.00 0.36 0.36 69 1014.9
20260904032417 73 202 2.0 10.0 0.00 0.36 0.36 69 1014.9
20260904032114 73 209 2.0 10.0 0.00 0.36 0.36 69 1015.2
20260904031810 73 246 2.0 10.0 0.00 0.36 0.36 69 1015.2
20260904031053 74 268 2.0 7.0 0.00 0.35 0.35 69 1015.3
20260904030756 75 239 2.0 7.0 0.00 0.35 0.35 69 1015.5
20260904030452 75 218 2.0 7.0 0.00 0.35 0.35 69 1015.5
20260904030144 75 248 1.0 7.0 0.00 0.35 0.35 70 1015.6
20260904025847 76 249 1.0 7.0 0.00 0.35 0.35 70 1015.5
20260904025544 76 180 1.0 7.0 0.00 0.35 0.35 70 1015.6
20260904025235 76 311 1.0 7.0 0.00 0.35 0.35 70 1015.4
20260904024057 77 162 1.0 3.0 0.00 0.35 0.35 70 1015.3
20260904023748 78 255 1.0 3.0 0.00 0.35 0.35 70 1015.4
20260904023024 78 156 0.0 3.0 0.00 0.35 0.35 70 1015.4
20260904022722 78 200 0.0 2.0 0.00 0.35 0.35 70 1015.3
20260904022419 78 246 0.0 2.0 0.00 0.35 0.35 70 1015.3
20260904021658 78 240 0.0 2.0 0.00 0.35 0.35 70 1014.8
20260904021348 78 281 0.0 2.0 0.04 0.35 0.35 70 1014.6
20260904021038 78 355 0.0 0.0 0.04 0.35 0.35 70 1014.3
20260904020728 78 30 0.0 0.0 0.06 0.35 0.35 70 1014.1
20260904020428 78 30 0.0 0.0 0.06 0.35 0.35 70 1014.1
20260904020115 78 189 0.0 0.0 0.06 0.35 0.35 69 1014.0
20260904015806 79 190 0.0 0.0 0.06 0.33 0.35 70 1014.0
20260904015504 79 220 0.0 0.0 0.06 0.33 0.34 70 1014.2
20260904014732 79 224 0.0 0.0 0.06 0.32 0.34 69 1014.2
20260904014422 79 224 0.0 0.0 0.05 0.32 0.33 69 1014.2
20260904014113 79 224 0.0 0.0 0.05 0.32 0.33 69 1014.3
20260904013356 79 224 0.0 0.0 0.00 0.32 0.32 69 1014.3
20260904013046 79 224 0.0 0.0 0.00 0.32 0.32 69 1014.2
20260904012750 79 234 0.0 0.0 0.00 0.32 0.32 69 1014.2
20260904012439 79 239 0.0 0.0 0.00 0.32 0.32 69 1014.2
20260904012131 79 240 0.0 0.0 0.00 0.31 0.31 69 1014.2
20260904011828 79 239 0.0 0.0 0.00 0.31 0.31 69 1014.1
20260904010226 79 211 0.0 0.0 0.00 0.31 0.31 68 1013.9
20260904005449 79 211 0.0 0.0 0.00 0.31 0.31 68 1013.9
20260904004730 80 211 0.0 0.0 0.00 0.31 0.31 68 1014.0
20260904004426 80 211 0.0 0.0 0.00 0.31 0.31 68 1013.9
20260904004121 80 211 0.0 0.0 0.00 0.31 0.31 68 1013.9
20260904003811 80 211 0.0 1.0 0.00 0.31 0.31 68 1013.9
20260904003501 80 221 0.0 0.0 0.00 0.31 0.31 68 1014.0
20260904003200 80 221 0.0 0.0 0.00 0.31 0.31 68 1014.0
20260904002030 80 225 0.0 0.0 0.00 0.31 0.31 67 1014.0
20260904001721 80 225 0.0 0.0 0.00 0.31 0.31 67 1014.0
20260904001413 80 225 0.0 0.0 0.00 0.31 0.31 67 1014.1
20260904001108 81 225 0.0 0.0 0.00 0.31 0.31 67 1014.1
20260904000759 81 222 0.0 0.0 0.00 0.31 0.31 66 1014.1
20260903235612 81 226 0.0 0.0 0.00 0.31 0.31 66 1014.4
20260903235307 81 226 0.0 0.0 0.00 0.31 0.31 66 1014.4
20260903235000 81 229 0.0 0.0 0.00 0.31 0.31 66 1014.3
20260903234700 81 229 0.0 0.0 0.00 0.31 0.31 65 1014.3
20260903234403 81 223 0.0 0.0 0.00 0.31 0.31 65 1014.3
20260903234058 82 221 0.0 0.0 0.00 0.31 0.31 65 1014.2
20260903233801 82 228 0.0 1.0 0.00 0.31 0.31 65 1014.1
20260903233457 82 228 0.0 1.0 0.00 0.31 0.31 65 1013.9
20260903232723 82 228 0.0 0.0 0.00 0.31 0.31 65 1013.7
20260903232417 82 228 0.0 0.0 0.00 0.31 0.31 64 1013.5
20260903231705 83 228 0.0 0.0 0.00 0.31 0.31 64 1013.4
20260903231358 83 228 0.0 0.0 0.00 0.31 0.31 64 1013.3
20260903231045 83 228 0.0 0.0 0.00 0.31 0.31 64 1013.4
20260903230742 83 229 0.0 1.0 0.00 0.31 0.31 64 1013.5
20260903230438 83 221 0.0 0.0 0.00 0.31 0.31 63 1013.6
20260903230139 83 221 0.0 1.0 0.00 0.31 0.31 63 1013.7
20260903225826 83 224 0.0 0.0 0.00 0.31 0.31 63 1013.7
20260903225513 83 224 0.0 3.0 0.00 0.31 0.31 63 1013.6
20260903225216 83 294 0.0 3.0 0.00 0.31 0.31 63 1013.7
20260903224504 84 214 0.0 2.0 0.00 0.31 0.31 62 1013.6
20260903224202 84 239 0.0 2.0 0.00 0.31 0.31 62 1013.6
20260903223857 84 249 0.0 6.0 0.00 0.31 0.31 62 1013.5
20260903223557 84 182 1.0 6.0 0.00 0.31 0.31 62 1013.5
20260903222833 84 209 0.0 6.0 0.00 0.31 0.31 61 1013.5
20260903222534 84 238 0.0 6.0 0.00 0.31 0.31 62 1013.5
20260903222238 84 218 0.0 6.0 0.00 0.31 0.31 61 1013.3
20260903221936 84 211 0.0 3.0 0.00 0.31 0.31 61 1013.1
20260903221637 84 180 0.0 4.0 0.00 0.31 0.31 61 1013.1
20260903221324 85 298 0.0 4.0 0.00 0.31 0.31 61 1013.2
20260903220550 85 224 1.0 7.0 0.00 0.31 0.31 60 1013.2
20260903220236 85 287 1.0 7.0 0.00 0.31 0.31 60 1013.2
20260903215938 85 215 1.0 7.0 0.00 0.31 0.31 60 1013.1
20260903215628 85 178 1.0 7.0 0.00 0.31 0.31 59 1013.2
20260903214905 85 248 2.0 8.0 0.00 0.31 0.31 59 1013.2
20260903214555 85 277 2.0 8.0 0.00 0.31 0.31 59 1013.1
20260903213359 85 203 2.0 8.0 0.00 0.31 0.31 58 1013.2
20260903213101 85 259 2.0 8.0 0.00 0.31 0.31 59 1013.1
20260903212752 85 30 2.0 7.0 0.00 0.31 0.31 59 1013.1
20260903212454 85 252 2.0 7.0 0.00 0.31 0.31 58 1013.1